Regional Weather Roundup
Issued by NWS Charleston, SC

Current Version | Previous Version | Graphics & Text | Print | Product List | Glossary On
Versions: 1 2 3 4 5 6 7 8 9 10 11 12 13 14 15 16 17 18 19 20 21 22 23 24 25 26 27 28 29 30 31 32 33 34 35 36 37 38 39 40 41 42 43 44 45 46 47 48 49 50
000
ASUS42 KCHS 281328
RWRCHS

REGIONAL WEATHER ROUNDUP
NATIONAL WEATHER SERVICE CHARLESTON SC
900 AM EDT THU APR 28 2016

NOTE: "FAIR" INDICATES FEW OR NO CLOUDS BELOW 12,000 FEET WITH NO
SIGNIFICANT WEATHER AND/OR OBSTRUCTIONS TO VISIBILITY.

NOT ALL STATIONS ARE QUALITY CONTROLLED. USE DATA WITH CAUTION...
ESPECIALLY DEWPOINT OBSERVATIONS.

SCZ027-030-031-034>040-042>050-281400-
...SOUTHEAST SOUTH CAROLINA...

CITY           SKY/WX    TMP DP  RH WIND       PRES   REMARKS
N CHARLESTON   PTSUNNY   73  66  78 W6        29.97R
WATERFRONT PRK   N/A     73  69  87 SW5       29.95R
MOUNT PLEASANT FAIR      75  70  83 SW8       29.98R
JOHNS ISLAND   FAIR      75  70  83 SW5       29.98R
PINOPOLIS        N/A     72  66  83 SW6       29.89R
MONCKS CORNER  LGT RAIN  66  63  88 CALM      29.98S
SUMMERVILLE    RAIN      68  68 100 CALM      29.99S
BEAUFORT MCAS  RAIN      71  68  90 SW3       29.97R
BEAUFORT ARPT  PTSUNNY   72  68  88 CALM      29.97S FOG
HILTON HEAD IS LGT RAIN  72  70  94 SW6       29.98
WALTERBORO     CLOUDY    70  70 100 CALM      29.98F
ALLENDALE      FAIR      72  66  83 VRB5      29.96S

...SOUTHERN MIDLANDS AND PEE DEE...

CITY           SKY/WX    TMP DP  RH WIND       PRES   REMARKS
GEORGETOWN     FAIR      72  64  78 SW9       29.99R
KINGSTREE      DRIZZLE   68  63  83 CALM      29.98R
ORANGEBURG     CLOUDY    68  64  87 S5        29.97R
BARNWELL       PTSUNNY   75  68  78 CALM      29.97S
AIKEN          CLOUDY    70  63  78 SW7       30.00R
MANNING        NOT AVBL
COLUMBIA       CLOUDY    69  62  78 SW3       29.95R
SUMTER         CLOUDY    67  64  90 S8        29.94R
FLORENCE       CLOUDY    70  64  81 SW10      29.95R
MYRTLE BEACH   PTSUNNY   75  63  64 SW8       29.98R
N MYRTLE BEACH PTSUNNY   72  69  90 SW13      29.96R

$$

GAZ063-065-086>088-099>101-113>116-118-119-134>141-150-281400-
...SOUTHEAST GEORGIA...

CITY           SKY/WX    TMP DP  RH WIND       PRES   REMARKS
SAVANNAH ARPT  PTSUNNY   71  65  81 SW8       29.98R
HUNTER AAF     CLOUDY    72  69  91 SW6       29.96R
FORT STEWART   CLOUDY    71  66  84 CALM      29.96R
STATESBORO     MOSUNNY   77  72  84 SW5       29.97S
SYLVANIA       PTSUNNY   74  69  86 SW3       29.98S
CLAXTON        FAIR      74  70  86 S6        29.97F

...CSRA...CENTRAL AND FAR SOUTHEAST GEORGIA...

CITY           SKY/WX    TMP DP  RH WIND       PRES   REMARKS
THOMSON        CLOUDY    72  70  93 CALM      30.00S
AUGUSTA-BUSH   CLOUDY    70  66  87 S3        29.95S
AUGUSTA-DANIEL CLOUDY    71  64  78 S3        29.97R
SWAINSBORO     CLOUDY    72  68  88 SW3       29.98S
VIDALIA        SUNNY     73  68  83 SW7       29.98S
EASTMAN        CLOUDY    71  71 100 S5        29.99S FOG
HAZLEHURST     CLOUDY    72  72 100 SW5       29.97S
ALMA           CLOUDY    71  69  93 S6        29.98S
WAYCROSS       CLOUDY    70  70 100 SW8       29.99S FOG
JESUP          FAIR      77  72  83 SW7       29.99S
BAXLEY         CLOUDY    73  72  94 SW8       29.98S
BRUNSWICK      CLOUDY    75  70  83 W6        30.00S
SAINT SIMONS   CLOUDY    71  68  90 SW8       29.99R

$$

SCZ027-028-034-036>038-045-046-048>050-GAZ119-141-281400-
...LAKE AND SUPPLEMENTAL COASTAL OBSERVATIONS...

STATION/POSITION TIME  TEMP    WIND        PRES    WAVE   SWELL
                       AIR SEA DIR/SP/G            HT/PER HT/PER/DIR
                 (UTC) (F)     (DEG/KT/KT) (MB)    (FT/S) (FT/S/D)
WINYAH BAY       NOT AVBL
LAKE MURRAY      1200   69     190/  5/  6 1013.5R
ACE BASIN NERRS  1200   71        CALM     1015.0
FORT PULASKI     1300   72 71  200/  5/  6 1015.3S
SAPELO ISLAND    NOT AVBL

$$

ANZ835-935-AMZ111-154-330-350-352-354-370-450-454-472-281400-
...C-MAN AND BUOY OBSERVATIONS...

STATION/POSITION TIME  TEMP    WIND        PRES    WAVE   SWELL
                       AIR SEA DIR/SP/G            HT/PER HT/PER/DIR
                 (UTC) (F)     (DEG/KT/KT) (MB)    (FT/S) (FT/S/D)
BUOY 41004       1250   72 71  210/ 10/ 12 1014.9R   3/ 5   2/ 7
BUOY 41008       NOT AVBL
FOLLY BEACH CMAN 1300   71     220/  9/ 11 1015.4R
CAPERS NEARSHORE 1208   70 69  230/ 12/ 14 1014.6R
FRIPP NEARSHORE  1308   71 70  230/ 10/ 14 1014.5R


STATION/POSITION TIME  TEMP    WIND        PRES    WAVE   SWELL
                       AIR SEA DIR/SP/G            HT/PER HT/PER/DIR
                 (UTC) (F)     (DEG/KT/KT) (MB)    (FT/S) (FT/S/D)
5E ST. MARYS GA  1221      71                N/A     2/ 4
FRYING PAN BUOY  1300          200/ 10/ 12 1015.0R
BUOY 41025       1250   71 71  250/ 12/ 14 1014.7R   3/ 6   2/180/ 6
CAPE LOOKOUT NC  1300   71     210/  7/  8 1014.5R
BUOY 41002       1250   71 71  200/  4/  6 1018.0R   2/11   2/ 50/11
BUOY 41010       1220   75 76  190/  8/  8 1016.6R
ST AUGUSTINE FL  1300   74 70  200/  9/ 11 1016.3R


$$




USA.gov is the U.S. government's official web portal to all federal, state and local government web resources and services.